Regional Weather Roundup
Issued by NWS

Home | Current Version | Previous Version | Text Only | Print | Product List | Glossary On
Versions: 1 2 3 4 5 6 7 8 9 10 11 12 13 14 15 16 17 18 19 20 21 22 23 24 25 26 27 28 29 30 31 32 33 34 35 36 37 38 39 40 41 42 43 44 45 46 47 48 49 50
000
ASUS43 KTOP 241259
RWRKS

WEATHER ROUNDUP FOR KANSAS
NATIONAL WEATHER SERVICE GOODLAND KS
800 AM CDT SUN MAY 24 2015

NOTE:  "FAIR" INDICATES FEW OR NO CLOUDS BELOW 12,000 FEET WITH NO
SIGNIFICANT WEATHER AND/OR OBSTRUCTIONS TO VISIBILITY.

KSZ001>006-013>018-027>032-041>047-241400-
NORTHWEST KANSAS

CITY           SKY/WX    TMP DP  RH WIND       PRES   REMARKS
GOODLAND       CLOUDY    53  52  96 W5        29.89F
HAYS           CLOUDY    55  52  88 SE9       29.88F VSB<1/4
HILL CITY      CLOUDY    58  56  93 CALM      29.89F
RUSSELL        FOG       58  58 100 SE8       29.88R VSB 1/2
$$

KSZ061>065-074>080-084>089-241400-
SOUTHWEST KANSAS

CITY           SKY/WX    TMP DP  RH WIND       PRES   REMARKS
DODGE CITY     FOG       57  55  93 SE5       29.89S VSB<1/4
ELKHART          N/A     55  53  93 S2          N/A
GARDEN CITY    CLOUDY    56  56 100 SE3       29.87F
GREAT BEND     CLOUDY    57  54  88 S8        29.89F VSB 3/4
LIBERAL        PTSUNNY   61  55  82 S5        29.88R
$$

KSZ066>073-081>083-090>101-241400-
SOUTHEAST KANSAS

CITY           SKY/WX    TMP DP  RH WIND       PRES   REMARKS
CHANUTE        CLOUDY    64  63  96 SW5       29.91F
COFFEYVILLE    CLOUDY    63  62  97 E3        29.89F
HUTCHINSON     CLOUDY    60  57  89 SE8       29.90S
NEWTON         CLOUDY    57  54  88 CALM      29.93S
PARSONS        CLOUDY    64  63  96 CALM      29.91F
WICHITA INTL   CLOUDY    61  59  93 SE7       29.90S
WICHITA JABRA  CLOUDY    59  59 100 S5        29.91R
WINFIELD       CLOUDY    61  60  97 E3        29.90F
$$

KSZ007>012-019>026-033>040-048>060-102>105-241400-
NORTHEAST KANSAS

CITY           SKY/WX    TMP DP  RH WIND       PRES   REMARKS
CONCORDIA      PTSUNNY   60  60 100 CALM      29.87F
EMPORIA        CLOUDY    61  60  97 SW5       29.90F
LAWRENCE       CLOUDY    65  62  90 SW6       29.89F
MANHATTAN      CLOUDY    62  62 100 SW8       29.89F
OLATHE IND     CLOUDY    64  63  96 SW9       29.91R
OLATHE EXE     LGT RAIN  64  64 100 SW12      29.90S FOG
SALINA         FOG       59  58  96 SE6       29.89F VSB 1/4
TOPEKA BILLARD CLOUDY    64  62  93 S6        29.88F
TOPEKA FORBES  CLOUDY    64  61  90 SW6       29.88F
$$


USA.gov is the U.S. government's official web portal to all federal, state and local government web resources and services.